Regional Weather Roundup
Issued by NWS

Home | Current Version | Previous Version | Graphics & Text | Print | Product List | Glossary On
Versions: 1 2 3 4 5 6 7 8 9 10 11 12 13 14 15 16 17 18 19 20 21 22 23 24 25 26 27 28 29 30 31 32 33 34 35 36 37 38 39 40 41 42 43 44 45 46 47 48 49 50
000
ASUS43 KBIS 282110
RWRND

NORTH DAKOTA REGIONAL WEATHER ROUNDUP
NATIONAL WEATHER SERVICE BISMARCK ND
300 PM CST FRI NOV 28 2014

NOTE: "FAIR" INDICATES FEW OR NO CLOUDS BELOW 12,000 FEET WITH NO
SIGNIFICANT WEATHER AND/OR OBSTRUCTIONS TO VISIBILITY.


NDZ001>003-009>011-017-282200-
NORTHWEST NORTH DAKOTA

CITY           SKY/WX    TMP DP  RH WIND       PRES   REMARKS
WILLISTON      MOSUNNY   25  19  78 SE7       29.49F WCI  17
MINOT          CLOUDY    13   7  77 E15       29.60F WCI  -3
MINOT AFB      FLURRIES  12   9  85 SE17      29.61F WCI  -5
$$

NDZ018>021-031>035-040>046-282200-
SOUTHWEST NORTH DAKOTA

CITY           SKY/WX    TMP DP  RH WIND       PRES   REMARKS
BISMARCK       PTSUNNY   21  14  74 E9        29.63F WCI  11
DICKINSON      CLOUDY    41  31  67 SE7       29.47F
GARRISON         N/A     17  12  80 SE15      29.56F WCI   2
HETTINGER ARPT CLOUDY    42  31  64 E3        29.53F
$$

NDZ004>008-012>016-024-026-027-054-282200-
NORTHEAST NORTH DAKOTA

CITY           SKY/WX    TMP DP  RH WIND       PRES   REMARKS
GRAND FORKS    LGT SNOW  16   9  73 SE9       29.81F WCI   4
GRND FRKS AFB  FLURRIES  14   9  79 SE10      29.80F WCI   1
DEVILS LAKE    CLOUDY    14   1  57 SE15      29.70F WCI  -1
$$

NDZ022-023-025-028>030-036>039-047>053-282200-
SOUTHEAST NORTH DAKOTA

CITY           SKY/WX    TMP DP  RH WIND       PRES   REMARKS
FARGO          CLOUDY    18  10  71 E9        29.80F WCI   7
JAMESTOWN      CLOUDY    13   8  81 E13       29.69F WCI  -2
$$




USA.gov is the U.S. government's official web portal to all federal, state and local government web resources and services.